[[{"header":{"parameterUnit":"m.s-1","parameterCategory":1,"la1":30.2991,"la2":30.254,"lo1":-89.0895,"lo2":-89.0444,"dy":0.0017,"dx":0.0017,"nx":28,"ny":28,"refTime":"2024-06-29T21:00:00:Z","depth":0,"parameterNumber":2,"parameterNumberName":"U-component_of_WINDS"},"data":[0,0,0,0,0,0,0,0,0,0,0,0,0,0,0,0,0,0,0,0,0,0,0,0,0,0,0,0,0,0,0,0,0,0,0,0,0,0,0,0,0,0,0,0,0,0,0,0,0,0,0,0,0,0,0,0,0,0,-0.0216,-0.0215,0,-0.0091,-0.0089,-0.0088,-0.0021,-0.002,-0.002,-0.002,0.0107,0.011,0.0114,0,0,0,0,0,0,0,0,0,0,0,0,0,-0.0398,-0.0395,-0.0216,-0.0214,-0.0213,-0.0091,-0.0089,-0.0088,-0.0021,-0.002,-0.002,-0.002,0.0106,0.011,0.0114,0,0,0,0,0,0,0,0,0,0,0,0,0,-0.0301,-0.0394,-0.0216,-0.0165,-0.0159,-0.0091,-0.0089,-0.0087,-0.0021,-0.002,-0.002,-0.002,0.0105,0.011,0.0114,0.014,0,0,0.0129,0.0131,0,0,0,0,0,0,0,0,-0.0306,-0.0294,-0.0174,-0.0168,-0.0161,-0.0071,-0.0107,-0.0011,-0.0021,-0.0073,-0.002,-0.002,0.0048,0.0057,0.008,0.0146,0.0151,0.013,0.0133,0.0135,0.0136,0,0,0,0,0,0,0,-0.0313,-0.0299,-0.0166,-0.0172,-0.0165,-0.0148,-0.0134,-0.0088,-0.0016,-0.0069,-0.0063,-0.0049,0.0051,0.0075,0.0084,0.0153,0.013,0.0134,0.0137,0.0139,0.0245,0.0245,0,0,0,0,0,0,-0.0328,-0.0305,-0.017,-0.0163,-0.0235,-0.0145,-0.0129,-0.01,-0.0016,-0.0003,-0.005,-0.0047,0.0067,0.0078,0.0088,0.0123,0.0135,0.0139,0.0142,0.0245,0.0245,0.0245,0,0,0,0,0,0,-0.0332,-0.0317,-0.0175,-0.0232,-0.0213,-0.0142,-0.011,-0.0098,-0.0074,-0.0002,0.0012,-0.0038,0.0068,0.0082,0.0126,0.0129,0.0142,0.0146,0.0245,0.0245,0.0245,0.0193,0,0,0,0,0,0,-0.0338,-0.0319,-0.0308,-0.0233,-0.0211,-0.0139,-0.011,-0.0096,-0.0065,-0.006,0.0013,0.0025,0.0069,0.0119,0.0131,0.0136,0.015,0.0245,0.0245,0.0245,0.0195,0.0191,0.0188,0,0,0,0,0,-0.0344,-0.0327,-0.0308,-0.0292,-0.0196,-0.0139,-0.0127,-0.0076,-0.0065,-0.0054,-0.0008,0.0023,0.0126,0.0123,0.0137,0.0143,0.0246,0.0245,0.0245,0.0197,0.0192,0.0188,0,0,0,0,0,0,-0.0404,-0.0317,-0.0294,-0.0252,-0.0204,-0.0128,-0.0112,-0.0083,-0.0037,-0.0034,0.0027,0.0042,0.0081,0.0117,0.0111,0.0172,0.0189,0.0192,0.0147,0.0144,0.014,0.0131,0.0154,0,0,0,0,0,-0.0413,-0.0374,-0.0299,-0.027,-0.0247,-0.0184,-0.0158,-0.0123,-0.0071,-0.005,-0.0,0.0049,0.0093,0.012,0.0164,0.0201,0.0217,0.0212,0.0208,0.0205,0.0206,0.0228,0.0226,0.0244,0.0244,0.0244,0,0,-0.0429,-0.0377,-0.0356,-0.028,-0.0239,-0.0201,-0.0167,-0.0128,-0.0099,-0.0044,0.0001,0.0039,0.0098,0.0138,0.0159,0.0169,0.0205,0.0205,0.0202,0.0205,0.0227,0.0225,0.0224,0.0244,0.0244,0.0244,0,0,-0.044,-0.0396,-0.0367,-0.0326,-0.0264,-0.0222,-0.0216,-0.0145,-0.0117,-0.0071,-0.0029,0.0006,0.008,0.012,0.015,0.0153,0.0183,0.0166,0.0148,0.0168,0.0166,0.0165,0.0166,0.0165,0.0168,0.0167,0.0167,0,-0.0469,-0.0409,-0.0356,-0.0319,-0.0287,-0.0236,-0.0206,-0.0169,-0.0096,-0.0075,-0.0065,0.0029,0.0073,0.0123,0.0123,0.0146,0.0155,0.0158,0.0162,0.0162,0.0162,0.0163,0.0163,0.0165,0.0165,0.0165,0.0166,0,-0.0448,-0.0408,-0.0392,-0.0322,-0.0288,-0.0256,-0.0197,-0.017,-0.0139,-0.0099,-0.0053,0.0001,0.0057,0.0071,0.0103,0.0126,0.013,0.0151,0.0169,0.0156,0.0158,0.0159,0.0161,0.0162,0.0163,0.0164,0,0,-0.0493,-0.0395,-0.039,-0.0358,-0.0286,-0.0253,-0.0219,-0.0164,-0.0142,-0.0093,-0.0063,-0.0002,0.0018,0.0051,0.0088,0.0105,0.0103,0.0124,0.0126,0.0117,0.0131,0.0115,0.0114,0.0123,0.0124,0.0124,0.0126,0,-0.0495,-0.0429,-0.038,-0.0333,-0.0295,-0.0246,-0.0216,-0.0169,-0.013,-0.0093,-0.0051,-0.0009,0.0014,0.0034,0.0054,0.0099,0.0106,0.01,0.0152,0.0153,0.0135,0.0116,0.0099,0.0098,0.0127,0.0127,0.0127,0,-0.0487,-0.044,-0.039,-0.0322,-0.0304,-0.0278,-0.0224,-0.0189,-0.0135,-0.0108,-0.0071,-0.0034,0.0005,0.0019,0.0073,0.0067,0.0091,0.0116,0.0117,0.0124,0.0139,0.0121,0.01,0.0099,0.0129,0.0129,0.0129,0,-0.0526,-0.045,-0.041,-0.0384,-0.0304,-0.0287,-0.0253,-0.0198,-0.0169,-0.0122,-0.0102,-0.0052,-0.0025,0.0013,0.0063,0.0069,0.0111,0.013,0.0133,0.0132,0.014,0.0138,0.0121,0.0155,0.0155,0.0155,0.0155,0,-0.0532,-0.0504,-0.0427,-0.0402,-0.0369,-0.0313,-0.0282,-0.0243,-0.0196,-0.0163,-0.0118,-0.0088,-0.0025,0.0012,0.0051,0.0089,0.0101,0.0123,0.0133,0.0119,0.0116,0.0135,0.0136,0.0155,0.0155,0.0155,0.0155,0,-0.057,-0.0517,-0.0471,-0.0399,-0.038,-0.0359,-0.0297,-0.0272,-0.0232,-0.0191,-0.0179,-0.0115,-0.007,-0.0017,0.0046,0.0072,0.0107,0.0122,0.0088,0.0094,0.0094,0.0093,0.0088,0.009,0.0123,0.0123,0.0122,0,-0.0578,-0.0555,-0.0481,-0.0456,-0.0423,-0.0383,-0.0353,-0.0297,-0.0268,-0.0204,-0.0187,-0.0138,-0.0096,-0.0026,0.0026,0.0074,0.009,0.0085,0.0097,0.0082,0.0089,0.0087,0.0089,0.0081,0.008,0.008,0.0079,0,-0.0598,-0.0573,-0.0531,-0.048,-0.0445,-0.0403,-0.0358,-0.034,-0.0276,-0.0245,-0.0198,-0.0165,-0.0101,-0.0054,0.0001,0.0036,0.0068,0.0075,0.0078,0.0064,0.0043,0.0054,0.0078,0.0075,0.0075,0.0076,0.0076,0.0076,-0.0622,-0.0599,-0.0543,-0.0498,-0.0459,-0.0418,-0.0391,-0.0347,-0.0307,-0.025,-0.022,-0.0174,-0.0121,-0.0044,-0.0011,0.0026,0.0037,0.0042,0.0043,0.0043,0.0039,0.0038,0.0036,0.0036,0.0037,0.0037,0.0037,0,-0.064,-0.0602,-0.0561,-0.05,-0.0464,-0.0437,-0.0386,-0.0359,-0.0318,-0.0271,-0.0231,-0.0177,-0.0131,-0.0076,-0.0026,-0.0008,0.0008,0.0004,0.0003,0.001,0.0026,0.0018,-0.001,-0.001,-0.001,-0.001,-0.001,-0.001,-0.0645,-0.0606,-0.0574,-0.0515,-0.0477,-0.0431,-0.0405,-0.0367,-0.0329,-0.0272,-0.0233,-0.0197,-0.0147,-0.0093,-0.005,-0.0035,-0.0019,-0.0029,-0.001,0.0005,0.0009,0.0013,0.0005,-0.0025,-0.0025,-0.0029,-0.0029,-0.0029]},{"header":{"parameterUnit":"m.s-1","parameterCategory":1,"la1":30.2991,"la2":30.254,"lo1":-89.0895,"lo2":-89.0444,"dy":0.0017,"dx":0.0017,"nx":28,"ny":28,"refTime":"2024-06-29T21:00:00:Z","depth":0,"parameterNumber":3,"parameterNumberName":"V-component_of_WINDS"},"data":[0,0,0,0,0,0,0,0,0,0,0,0,0,0,0,0,0,0,0,0,0,0,0,0,0,0,0,0,0,0,0,0,0,0,0,0,0,0,0,0,0,0,0,0,0,0,0,0,0,0,0,0,0,0,0,0,0,0,4.7036,4.7035,0,4.7018,4.7018,4.7017,4.6958,4.6956,4.6955,4.6954,4.6937,4.6937,4.6938,0,0,0,0,0,0,0,0,0,0,0,0,0,4.702,4.702,4.7036,4.7035,4.7035,4.7018,4.7018,4.7017,4.6958,4.6956,4.6955,4.6953,4.6936,4.6937,4.6938,0,0,0,0,0,0,0,0,0,0,0,0,0,4.7017,4.702,4.7036,4.7003,4.7,4.7018,4.7018,4.7017,4.6958,4.6956,4.6954,4.6952,4.6936,4.6937,4.6938,4.6986,0,0,4.6942,4.6943,0,0,0,0,0,0,0,0,4.7017,4.7017,4.7008,4.7006,4.7002,4.6988,4.7006,4.7007,4.6959,4.6974,4.6954,4.6951,4.6955,4.6955,4.6956,4.6985,4.6984,4.6942,4.6943,4.6943,4.6944,0,0,0,0,0,0,0,4.7017,4.7018,4.7028,4.7008,4.7005,4.699,4.6988,4.7006,4.6976,4.6973,4.6968,4.6967,4.6953,4.6955,4.6955,4.6984,4.6942,4.6943,4.6944,4.6944,4.7053,4.7055,0,0,0,0,0,0,4.7022,4.7018,4.7029,4.7028,4.7005,4.6992,4.6989,4.6995,4.6976,4.6971,4.6969,4.6964,4.6954,4.6954,4.6954,4.7009,4.6943,4.6944,4.6945,4.7051,4.7053,4.7056,0,0,0,0,0,0,4.7022,4.7023,4.703,4.7022,4.7022,4.6995,4.7001,4.6995,4.6997,4.6973,4.6968,4.6976,4.6952,4.6953,4.6979,4.7008,4.6945,4.6946,4.7048,4.7051,4.7054,4.712,0,0,0,0,0,0,4.7021,4.7024,4.7041,4.7023,4.7022,4.7054,4.7003,4.6996,4.6999,4.6993,4.6978,4.6974,4.6951,4.6977,4.698,4.7009,4.6947,4.7045,4.705,4.7053,4.7115,4.7125,4.7134,0,0,0,0,0,4.7021,4.706,4.7042,4.7044,4.7043,4.7056,4.7056,4.7028,4.7001,4.7019,4.7004,4.6974,4.7004,4.698,4.6983,4.7012,4.7043,4.7048,4.7053,4.7111,4.7123,4.7133,0,0,0,0,0,0,4.7083,4.7057,4.7037,4.7071,4.7066,4.7046,4.7067,4.7042,4.7045,4.7039,4.7005,4.7002,4.7034,4.7025,4.6999,4.7058,4.7019,4.7025,4.7062,4.7074,4.7083,4.7084,4.6948,0,0,0,0,0,4.71,4.7112,4.7089,4.7122,4.712,4.7095,4.7099,4.7078,4.7072,4.7069,4.7056,4.7052,4.706,4.7066,4.7073,4.7114,4.711,4.7135,4.7144,4.7152,4.7158,4.718,4.7191,4.7072,4.7071,4.7071,0,0,4.7136,4.7124,4.7134,4.7134,4.7127,4.7141,4.7093,4.7109,4.7119,4.7072,4.7096,4.7086,4.7079,4.7113,4.7127,4.7107,4.719,4.7158,4.7165,4.7166,4.7186,4.7197,4.7207,4.7075,4.7074,4.7074,0,0,4.721,4.7201,4.7228,4.7223,4.7214,4.7196,4.7203,4.7187,4.7178,4.7202,4.7167,4.7179,4.7194,4.719,4.719,4.7264,4.7237,4.7267,4.7315,4.7337,4.7347,4.7355,4.7382,4.7392,4.7272,4.7272,4.7272,0,4.7256,4.7275,4.7245,4.7264,4.7265,4.7223,4.725,4.7247,4.7241,4.7243,4.722,4.7239,4.7231,4.7264,4.7282,4.7283,4.729,4.7268,4.7348,4.7355,4.7363,4.7388,4.7398,4.7276,4.7276,4.7275,4.7275,0,4.7333,4.7347,4.7369,4.7364,4.7368,4.7391,4.7365,4.7373,4.7353,4.7338,4.7363,4.7352,4.7356,4.7362,4.7342,4.7393,4.7381,4.7354,4.7314,4.7378,4.7402,4.7411,4.7281,4.728,4.7279,4.7278,0,0,4.7444,4.7423,4.7432,4.7429,4.7417,4.7427,4.7449,4.7453,4.746,4.7458,4.7476,4.749,4.7465,4.7465,4.7444,4.7464,4.7523,4.7434,4.7433,4.7451,4.758,4.7601,4.7612,4.7505,4.7507,4.7508,4.7581,0,4.7514,4.7549,4.7523,4.7563,4.7576,4.7537,4.7555,4.755,4.7537,4.7547,4.7533,4.7544,4.7509,4.7509,4.7527,4.7513,4.7549,4.7507,4.7522,4.7523,4.7526,4.7624,4.7646,4.7715,4.7589,4.7591,4.7592,0,4.76,4.7602,4.7643,4.7629,4.7634,4.7651,4.7653,4.7662,4.7656,4.7645,4.7646,4.7621,4.7642,4.7603,4.7631,4.7603,4.7608,4.7602,4.7604,4.7605,4.7562,4.7628,4.7736,4.7747,4.7606,4.7605,4.7604,0,4.7678,4.7691,4.7717,4.7717,4.7701,4.7714,4.7708,4.77,4.7704,4.7706,4.7708,4.7713,4.7715,4.7719,4.7696,4.7669,4.7728,4.7687,4.7721,4.7721,4.7735,4.7734,4.7846,4.7737,4.7737,4.7737,4.7737,0,4.776,4.7787,4.7752,4.7769,4.7798,4.7768,4.7798,4.7788,4.7782,4.7796,4.7762,4.7776,4.7744,4.7755,4.7737,4.7764,4.7766,4.7758,4.7753,4.7761,4.7763,4.7764,4.7759,4.774,4.7739,4.7739,4.7738,0,4.7852,4.7829,4.7856,4.7839,4.7835,4.7858,4.7844,4.7858,4.7843,4.7862,4.7865,4.7842,4.7853,4.783,4.7838,4.7826,4.7865,4.7852,4.7867,4.7863,4.7899,4.7896,4.8015,4.803,4.7912,4.7913,4.7914,0,4.7905,4.7925,4.791,4.7918,4.7914,4.7925,4.793,4.7901,4.7907,4.7902,4.7918,4.7927,4.7932,4.7953,4.7937,4.7943,4.7931,4.7972,4.7931,4.794,4.7932,4.7932,4.7934,4.7981,4.7982,4.7983,4.7984,0,4.8003,4.7991,4.7999,4.8003,4.8009,4.8011,4.801,4.8018,4.7988,4.7997,4.8008,4.8012,4.8021,4.803,4.8033,4.8027,4.8002,4.7997,4.8005,4.8014,4.8023,4.802,4.7891,4.7995,4.7994,4.7993,4.7992,4.7992,4.8078,4.8094,4.8087,4.8096,4.8093,4.8094,4.8107,4.8094,4.8103,4.8108,4.809,4.8106,4.81,4.8101,4.8099,4.8111,4.8092,4.8104,4.8107,4.8111,4.8117,4.802,4.8111,4.8111,4.811,4.811,4.811,0,4.8175,4.8168,4.8177,4.8178,4.8186,4.816,4.8158,4.8167,4.8181,4.8178,4.8184,4.8197,4.8207,4.8192,4.8199,4.8211,4.82,4.8214,4.8213,4.8213,4.8133,4.8125,4.8224,4.8224,4.8224,4.8224,4.8224,4.8224,4.8226,4.8253,4.824,4.8265,4.8258,4.8273,4.8275,4.8275,4.8273,4.8289,4.8297,4.8287,4.8279,4.8285,4.8293,4.8288,4.8293,4.8312,4.8304,4.8229,4.8218,4.8208,4.82,4.8313,4.8313,4.8382,4.8383,4.8384]}]]